Flag for Botswana Weather past 2 weeks in Francistown, Botswana

Now
77 °F

Passing clouds.


Feels Like: 78 °F
Forecast: 48 / 81 °F
Wind: 8 mph from East

Location: Francistown Airport

Current Time: May 29, 2015 at 11:15:20 AM

Latest Report: May 29, 2015 at 10:00 AM


Visibility: N/A

Pressure: 30.21 "Hg

Humidity: 42%

Dew point: 52 °F

Location of FrancistownLocation

Historic Weather in Francistown — Graph

°F

Francistown temperature yesterday

Maximum temperature yesterday: 82 °F (at 2:00 PM)
Minimum temperature yesterday: 39 °F (at 5:00 AM)
Average temperature yesterday: 62 °F

Past Weeks' High & Low Weather Summary

 TemperatureHumidityPressure
High90 °F (May 14, 3:00 PM)100% (May 23, 5:00 AM)30.36 "Hg (May 23, 5:00 AM)
Low39 °F (May 28, 5:00 AM)9% (May 16, 3:00 PM)30.07 "Hg (May 14, 2:00 PM)
Average67 °F43%30.22 "Hg
* Reported May 14 10:00 AM — May 29 10:00 AM, Francistown, Weather by CustomWeather, © 2015

Note: Actual official high and low records may vary slightly from our data, if they occured in-between our weather recording intervals... More about our weather records

Advertising

Francistown weather history for previous 24 hours

 ConditionsComfort  
Time TempWeatherWind HumidityBarometerVisibility
10:00 AM
Fri, May 29
77 °FPassing clouds.8 mph21%30.21 "HgN/A
9:00 AM68 °FPassing clouds.6 mph35%30.21 "HgN/A
8:00 AM57 °FSunny.1 mph48%30.21 "Hg10 mi
7:00 AM41 °FSunny.3 mph66%30.18 "Hg10 mi
6:00 AM41 °FSunny.3 mph66%30.18 "Hg10 mi
4:00 AM41 °FClear.5 mph61%30.18 "Hg10 mi
3:00 AM41 °FClear.3 mph70%30.18 "Hg10 mi
11:00 PM
Thu, May 28
54 °FClear.3 mph47%30.21 "Hg10 mi
10:00 PM54 °FClear.6 mph44%30.21 "Hg10 mi
9:00 PM57 °FClear.3 mph39%30.18 "Hg10 mi
8:00 PM59 °FClear.8 mph36%30.18 "Hg10 mi
7:00 PM59 °FClear.3 mph36%30.18 "Hg10 mi
6:00 PM70 °FClear.7 mph25%30.15 "Hg10 mi
5:00 PM79 °FClear.9 mph18%30.12 "Hg10 mi
4:00 PM81 °FSunny.9 mph18%30.12 "Hg10 mi
3:00 PM82 °FSunny.10 mph17%30.12 "Hg10 mi
2:00 PM82 °FSunny.14 mph17%30.15 "Hg10 mi
1:00 PM81 °FPassing clouds.14 mph17%30.18 "HgN/A
12:00 PM81 °FSunny.16 mph18%30.21 "Hg10 mi
11:00 AM77 °FSunny.17 mph26%30.24 "Hg10 mi
Weather by CustomWeather, © 2015

See weather overviewHow to use our weather pages